Wind_Speed
8 8 9 9 10 12 12 12 13 13 12 12 12 12 13 12 10 9 7 7 8 8 10 10 10 9 9 8 8 7 6 6 5 6 6 6 6 6 7 7 5 5 5 5 6 6 6 7 8 9 9 8 8 7 7 6 5 5 5 5 5 5 5 5 5 5 6 5 5 5 5 5 5 5 5 5 4 4 3 3 2 2 1 1 1
11 11 10 9 10 12 12 12 13 15 15 15 14 13 13 14 13 12 11 11 11 10 11 12 11 11 10 9 9 8 6 6 6 6 7 7 7 7 8 8 8 7 7 6 6 6 7 7 8 9 9 9 8 8 7 6 6 5 5 5 5 5 5 5 5 6 6 7 6 6 6 6 6 6 6 5 5 3 3 2 1 0 1 1 2
12 13 13 12 11 11 12 13 13 14 15 16 17 15 14 15 16 15 14 13 13 13 13 13 12 11 11 11 11 9 7 7 6 7 8 8 9 9 10 10 10 9 9 8 8 7 7 8 9 9 9 9 9 8 8 7 7 6 6 6 6 6 6 6 6 6 6 7 7 7 7 7 7 7 6 6 5 4 3 2 1 1 2 2 2
14 15 15 14 14 13 12 13 13 14 15 16 18 17 16 16 17 17 16 15 16 15 15 15 14 13 13 14 13 10 9 8 8 8 8 9 10 10 11 12 12 11 11 10 10 9 8 9 9 10 10 10 9 9 8 8 7 7 7 7 7 7 7 6 6 7 7 7 7 7 7 7 7 7 7 6 5 4 3 3 2 2 2 3 3
16 16 16 17 17 16 16 16 16 17 17 17 17 18 18 18 17 18 17 17 17 18 18 17 16 16 16 15 13 11 11 11 10 10 10 10 10 11 12 13 13 13 13 12 12 11 11 11 11 11 11 10 10 9 9 9 8 8 8 8 8 7 7 7 7 7 7 8 8 8 8 8 8 8 7 7 6 5 4 4 3 3 3 3 4
19 19 19 20 20 19 20 20 20 21 20 19 18 18 19 19 19 19 19 18 19 20 20 19 18 18 17 16 14 13 13 12 12 12 11 12 12 12 13 14 14 14 15 15 14 13 13 13 12 12 12 11 11 11 10 10 10 10 9 9 9 9 9 8 8 8 8 8 8 9 9 8 8 8 8 7 6 6 5 5 4 3 3 3 4
22 22 21 21 23 23 23 23 24 24 24 23 21 19 19 20 21 21 21 20 20 21 21 20 20 20 20 19 17 16 15 14 14 13 13 13 14 13 14 14 15 16 16 17 16 15 15 14 14 13 13 12 12 12 12 12 12 12 11 11 11 10 10 10 9 9 9 9 9 9 9 9 9 9 8 8 7 6 6 5 5 4 4 4 5
25 25 24 24 25 26 26 26 27 27 27 26 24 21 19 20 20 21 22 21 21 22 23 23 22 22 23 21 19 18 17 16 16 16 15 15 15 15 15 14 15 17 18 18 18 18 17 16 16 15 14 13 13 13 14 14 14 14 14 13 12 12 12 11 11 10 10 10 10 10 10 10 10 9 9 8 8 7 7 6 6 5 5 5 5
27 26 26 27 28 29 30 29 29 27 27 27 25 23 20 20 21 21 21 21 21 22 23 24 24 23 25 24 21 20 19 18 18 18 17 16 16 16 16 15 15 17 19 19 19 19 19 19 18 17 17 15 14 14 15 15 16 15 15 15 14 13 13 13 12 12 11 11 11 11 11 11 10 10 9 9 8 8 7 7 7 7 6 6 6
28 28 28 29 29 30 31 33 33 28 24 26 26 24 23 22 22 22 21 21 21 21 22 24 25 25 26 26 24 23 21 21 20 19 18 18 17 18 18 17 17 17 18 19 20 20 20 20 20 20 19 18 17 15 15 16 17 17 16 16 16 15 15 14 14 13 13 13 12 12 12 12 12 11 10 10 9 8 8 8 8 8 8 7 7
30 33 33 34 34 33 32 33 36 30 24 25 26 26 26 25 23 23 23 22 21 22 22 23 25 26 26 26 25 24 24 23 22 20 19 18 18 18 19 19 19 18 18 18 20 21 21 22 22 22 20 19 19 18 17 17 18 18 18 18 17 17 16 16 16 15 15 14 14 14 14 13 13 13 12 11 10 10 10 9 9 9 9 9 8
33 33 34 37 40 39 35 34 37 34 27 27 29 29 28 26 25 27 26 24 23 22 23 24 26 27 26 26 26 26 25 24 23 22 21 19 18 19 19 19 20 20 19 19 19 20 22 23 23 23 22 21 21 20 19 19 19 19 19 19 19 18 18 18 18 17 17 16 16 15 15 15 14 14 14 13 12 12 11 11 10 10 10 10 10
35 35 35 37 40 41 39 38 37 35 29 29 30 30 29 27 27 28 27 26 25 23 24 26 27 28 27 27 28 27 26 24 24 24 22 19 18 19 20 20 21 21 21 20 20 20 21 23 24 24 24 23 23 23 22 21 21 20 20 20 20 20 21 20 20 20 19 18 17 16 16 16 16 16 15 15 14 14 13 13 12 12 11 11 11
37 40 40 40 41 41 42 41 35 32 33 34 32 30 30 30 28 27 27 27 28 26 26 27 28 29 28 28 29 28 27 26 25 24 21 19 18 19 21 21 22 22 22 22 21 21 22 22 23 24 25 25 25 25 25 24 23 21 21 21 21 22 22 22 22 21 20 20 19 18 17 17 17 17 17 17 16 16 15 15 14 14 13 13 13
41 43 43 44 45 43 43 42 36 34 36 37 34 30 28 30 30 28 28 30 30 29 28 28 29 30 29 29 29 28 28 28 26 24 21 20 21 21 21 22 23 23 24 24 23 22 22 23 23 23 24 25 26 26 26 26 24 23 22 21 21 22 22 23 23 23 22 21 21 20 19 19 18 18 18 18 18 18 18 17 17 16 16 15 15
46 46 46 46 47 44 42 41 38 35 36 36 35 31 29 29 31 30 30 33 32 30 29 29 30 31 30 30 29 29 29 27 26 25 23 24 23 22 21 23 24 25 25 25 24 23 22 23 24 24 24 24 25 26 27 27 26 26 24 22 22 22 22 23 24 24 23 23 22 22 21 21 20 20 20 20 20 20 20 19 19 19 18 18 17
46 47 49 48 46 45 42 40 38 36 35 35 34 32 32 31 31 31 32 34 34 34 33 33 32 32 32 32 31 31 30 28 27 27 26 26 25 23 22 23 24 26 26 26 25 24 23 24 25 25 25 24 24 25 26 27 27 27 26 24 23 23 23 24 24 25 25 25 24 24 23 22 22 22 21 21 21 21 21 21 21 20 20 20 19
41 42 45 47 46 45 42 40 39 39 37 37 35 33 33 34 34 35 34 34 37 38 37 35 33 32 33 34 33 32 32 30 30 29 28 28 28 26 25 24 25 26 27 26 25 25 25 25 26 26 26 25 25 24 24 25 26 27 26 26 25 25 25 25 26 26 26 26 26 25 25 24 24 24 23 23 23 23 23 22 22 21 21 21 21
37 37 38 40 42 42 40 38 38 38 37 37 36 34 34 34 35 35 33 34 39 41 38 35 33 33 33 34 34 33 33 33 32 30 30 31 31 29 28 26 26 26 27 26 24 24 25 26 27 28 28 26 26 25 24 23 24 25 26 26 26 27 27 27 27 27 28 27 27 27 26 26 25 25 25 25 24 24 24 23 23 22 22 22 22
34 34 34 34 35 36 36 34 34 34 34 34 33 33 33 33 34 33 31 31 34 37 37 34 32 31 32 32 32 33 35 36 35 34 34 33 32 31 30 28 28 27 27 26 24 23 24 25 27 28 28 27 26 26 25 23 23 24 24 25 26 27 28 28 28 28 29 29 29 28 27 27 27 26 26 26 26 25 25 24 24 23 23 23 23
33 33 32 31 31 32 32 32 32 32 33 32 31 32 32 33 33 31 29 30 30 31 34 35 33 32 33 33 32 33 36 38 37 36 35 33 31 30 31 31 30 29 27 27 26 24 23 24 26 28 29 28 27 27 26 25 24 24 24 24 26 27 27 28 28 28 29 30 30 29 29 28 28 28 27 27 26 26 26 26 25 25 25 24 24
33 32 32 31 30 31 32 33 32 31 31 31 31 31 32 33 30 26 26 29 29 31 33 34 36 36 37 38 35 35 37 38 38 36 34 33 30 28 29 31 31 30 28 29 28 25 24 25 26 28 29 29 28 28 28 27 26 26 25 25 26 26 27 27 27 28 28 30 31 31 30 30 30 29 29 28 28 28 27 27 27 27 26 26 26
31 31 30 29 29 31 32 32 31 30 29 29 30 30 31 32 29 25 26 28 29 32 34 35 38 40 43 44 41 40 40 41 41 38 34 33 31 29 29 30 32 31 30 30 29 27 26 26 27 29 30 30 29 29 29 29 29 28 27 27 27 28 28 28 28 28 29 29 31 32 32 32 32 31 31 30 30 30 29 29 29 28 28 28 28
29 29 29 28 28 30 31 29 29 29 27 27 29 29 30 32 31 28 27 28 29 32 34 36 37 39 42 45 44 43 43 43 43 40 37 35 33 33 31 31 32 32 31 30 31 30 29 28 28 29 30 30 29 28 30 31 31 30 30 29 29 29 29 29 29 30 30 31 31 32 33 33 33 34 33 33 33 32 32 32 31 31 30 31 30
28 27 27 28 28 28 27 26 27 28 28 28 28 28 29 31 32 31 30 28 29 31 34 35 35 35 37 39 41 42 42 43 42 41 39 37 36 36 34 33 33 32 31 32 33 33 31 29 28 29 29 30 28 28 29 30 31 30 30 31 31 31 31 31 31 32 32 33 33 33 33 34 34 35 35 35 35 34 34 34 34 33 33 32 33
29 28 27 27 28 27 26 26 26 28 30 31 31 30 30 31 31 32 31 30 31 32 33 34 35 36 37 38 40 41 42 41 41 41 42 41 40 39 37 35 35 34 32 33 34 34 31 27 27 28 29 30 29 27 27 29 29 29 29 31 31 32 32 32 32 32 33 33 33 34 34 34 35 35 35 36 36 36 36 35 35 35 35 35 35
28 28 27 27 27 27 27 27 28 29 30 32 32 31 31 32 32 32 32 32 32 34 34 34 35 36 37 38 40 42 42 41 41 43 45 45 44 42 40 38 37 36 35 34 36 36 31 27 27 28 29 30 30 28 28 28 27 27 29 31 32 32 32 32 31 31 31 31 32 32 33 33 34 35 35 36 36 36 37 37 37 38 38 38 37
26 26 26 26 26 27 28 29 29 30 31 32 33 33 33 33 34 34 33 33 33 35 35 35 35 36 37 38 40 41 41 41 42 44 45 47 47 46 44 42 40 39 37 36 38 37 32 28 27 27 29 31 31 30 29 28 28 28 30 31 31 31 30 29 29 28 28 28 29 30 30 31 32 33 35 35 36 37 37 38 39 40 40 40 40
25 25 25 26 26 26 26 27 28 29 29 31 33 35 35 35 35 35 35 34 35 36 36 37 37 36 37 38 39 40 41 42 44 44 45 46 47 47 47 46 45 43 41 39 39 38 34 29 27 27 28 31 32 31 30 28 28 29 30 31 31 30 29 28 27 27 27 28 28 29 30 30 31 31 32 33 34 35 36 38 40 40 41 41 41
24 25 26 25 26 25 25 25 26 26 26 27 29 32 35 36 36 36 37 37 38 38 38 38 38 38 38 38 39 40 40 42 44 44 44 45 46 47 47 47 48 47 45 42 40 39 36 32 29 27 27 29 32 32 30 29 29 29 30 30 29 28 27 27 27 27 28 29 29 30 30 30 30 30 31 31 32 32 34 35 37 39 39 40 40
24 25 25 25 24 24 24 24 25 25 25 26 26 28 31 34 36 36 36 38 40 41 41 41 40 40 39 39 39 40 40 41 43 43 44 44 45 46 47 48 49 49 47 46 43 40 38 35 31 29 28 29 32 33 31 29 29 29 28 26 25 25 24 24 24 25 26 27 28 29 29 30 30 30 30 30 31 31 32 32 33 35 36 37 38
24 24 24 24 24 24 24 24 24 24 25 26 27 28 30 33 34 35 35 37 40 42 43 43 43 42 42 40 39 39 39 39 41 42 42 42 42 43 44 45 48 49 48 47 47 42 39 37 34 31 30 31 33 33 31 30 29 27 25 24 23 22 22 20 20 20 21 23 25 27 28 28 28 29 29 29 30 30 31 31 32 33 33 34 35
24 23 24 25 25 25 25 25 24 23 24 27 28 29 31 33 35 35 35 36 39 40 40 42 42 42 42 42 41 39 38 39 40 40 40 40 41 41 41 41 44 47 47 47 47 44 41 39 37 35 32 32 34 34 32 30 28 26 25 24 23 22 20 18 17 17 18 20 22 24 26 27 28 28 28 29 29 30 30 30 31 31 32 33 34
24 24 25 25 24 23 24 25 25 24 24 26 28 29 31 33 35 36 35 35 37 38 39 39 40 41 41 41 42 41 40 40 40 41 40 40 41 42 41 40 40 43 45 45 46 46 43 40 39 38 36 33 35 36 34 32 30 28 27 26 25 23 20 18 17 17 17 18 20 22 24 26 28 28 28 28 28 29 29 30 31 31 31 31 32
24 25 25 26 24 23 23 24 25 26 26 26 27 29 31 33 35 35 35 34 35 36 37 38 39 40 40 40 41 41 41 41 41 42 42 41 42 42 41 39 38 39 42 44 45 45 44 41 40 41 40 36 36 38 37 35 34 32 30 29 28 25 21 19 17 17 17 17 19 21 23 25 27 29 29 29 29 29 29 30 30 30 30 31 31
25 26 27 28 28 25 24 24 24 26 27 28 29 30 32 33 33 33 33 33 33 35 36 36 37 39 40 40 40 40 41 41 42 42 41 41 41 42 40 38 36 36 39 43 44 44 44 43 42 43 42 39 37 39 40 38 37 36 34 32 30 28 24 21 19 18 18 19 20 21 22 24 26 29 30 31 31 30 29 29 29 30 30 30 30
24 26 28 29 29 27 25 25 26 27 28 29 29 29 29 30 30 30 31 31 32 33 34 35 36 37 39 39 39 39 40 40 41 42 41 40 40 41 40 38 36 35 37 41 43 43 44 44 43 43 44 42 40 41 42 41 39 38 37 34 32 31 28 24 21 21 21 22 22 21 22 23 25 27 30 31 31 30 30 29 29 29 29 29 28
24 26 28 29 29 27 24 24 25 27 28 27 26 25 24 25 28 29 30 30 32 32 32 34 35 36 37 37 37 38 39 40 41 41 40 40 41 41 41 40 37 37 37 39 41 43 44 45 44 44 46 46 43 43 44 44 41 39 38 36 34 32 30 27 24 24 24 25 24 23 24 24 25 26 28 29 30 30 29 29 29 29 28 28 28
24 26 28 28 28 26 22 21 22 24 25 25 25 25 25 25 28 29 29 29 30 31 30 30 32 34 35 35 35 35 37 39 40 41 41 42 43 42 42 42 41 40 40 39 41 43 44 45 46 47 48 48 46 44 44 45 44 42 40 38 36 34 32 30 27 27 28 27 26 26 26 26 27 27 27 28 28 28 28 28 28 28 28 28 28
24 25 27 28 27 25 21 20 22 23 23 25 27 28 28 28 28 29 29 29 29 28 28 27 27 30 33 34 34 34 35 37 39 40 41 42 43 44 43 43 43 44 43 41 41 43 44 44 45 47 49 50 48 46 45 46 47 45 42 40 38 35 34 33 32 31 30 30 30 30 29 29 29 29 28 27 27 27 28 28 28 28 28 28 28
23 24 26 27 27 25 22 21 23 24 23 25 30 31 30 29 27 27 27 27 27 28 27 26 26 27 31 32 32 34 36 37 38 40 41 43 44 44 44 43 44 45 45 44 43 44 46 46 45 45 49 51 49 47 46 46 46 45 43 42 41 37 36 37 36 34 32 32 32 32 30 31 31 31 29 27 26 26 27 27 27 27 27 27 27
22 23 25 26 26 25 23 22 24 25 25 26 29 33 34 31 27 26 25 24 25 27 27 27 26 26 28 29 29 32 35 37 39 40 41 42 44 45 44 43 44 46 46 46 45 45 47 48 47 45 48 51 50 48 47 45 44 44 44 44 42 39 38 39 38 35 33 33 34 33 32 33 33 33 31 28 26 25 25 26 27 27 27 26 25
21 22 23 24 25 25 24 23 24 26 28 28 29 31 34 33 28 26 25 22 22 24 26 26 25 25 27 28 30 33 35 37 38 40 41 42 44 45 45 45 45 46 47 47 46 46 47 48 47 46 48 50 50 48 47 46 44 44 44 43 42 40 40 40 39 36 34 35 36 35 34 35 35 34 32 30 27 25 25 26 27 27 26 26 25
20 21 21 22 23 23 24 24 24 25 27 28 29 30 32 33 31 29 27 24 22 21 22 24 25 27 30 31 32 34 36 38 38 40 41 43 45 45 45 46 46 47 48 48 47 47 47 47 47 47 47 49 49 48 48 47 45 44 44 43 41 40 40 40 39 36 35 36 37 37 36 36 36 35 32 30 28 27 25 25 27 27 25 24 24
20 20 20 20 21 22 23 24 25 26 27 28 29 30 32 33 34 35 31 25 23 22 21 22 26 29 30 31 32 33 35 37 39 40 41 41 43 45 45 46 47 48 48 48 48 48 48 48 47 47 47 47 48 48 47 47 46 45 44 42 40 40 39 39 37 36 37 38 38 37 37 36 35 33 30 29 28 28 26 25 26 27 24 23 24
19 19 19 18 19 21 22 23 25 27 28 29 29 30 32 33 35 37 33 25 20 20 21 22 26 28 29 30 31 31 32 34 37 39 40 39 40 42 43 45 46 48 49 48 48 48 49 49 48 47 47 47 47 47 46 46 46 46 44 42 40 39 39 38 37 38 39 38 36 37 37 34 32 30 29 28 28 27 26 25 26 26 24 23 22
18 18 18 17 18 19 21 22 23 25 26 27 27 28 31 33 34 37 34 25 19 18 21 22 25 27 26 27 28 28 29 31 34 36 37 37 37 39 40 42 44 46 48 48 48 48 48 48 47 45 45 46 46 45 45 46 46 45 43 43 42 40 38 38 37 38 38 36 36 37 35 30 28 28 28 28 27 25 25 26 26 25 23 22 21
17 17 17 17 18 18 20 21 22 24 24 25 25 26 28 31 33 35 35 29 21 19 22 22 19 22 23 23 25 27 28 28 30 31 31 33 35 38 40 41 42 44 47 48 47 47 47 46 45 44 44 45 46 46 46 46 46 45 45 45 43 41 39 37 36 36 36 35 35 35 31 28 27 28 28 28 27 24 24 24 24 23 22 22 21
17 17 16 17 18 19 20 21 22 23 24 24 24 25 25 28 31 33 36 33 25 19 20 21 16 14 19 20 21 24 25 27 29 28 26 28 32 36 37 37 39 41 44 46 46 45 46 45 44 43 43 44 45 45 46 47 46 46 47 45 43 40 38 36 35 34 34 34 34 32 30 27 26 27 27 26 25 24 23 22 22 22 23 22 21
19 18 17 17 19 20 20 21 22 23 24 24 24 23 22 25 28 31 35 35 27 19 18 19 17 12 10 13 16 16 14 19 26 26 24 24 26 31 33 33 35 38 41 44 44 43 43 44 44 44 43 41 42 43 45 46 46 46 44 41 39 39 37 35 34 33 33 34 32 30 28 26 25 25 25 24 24 24 22 21 21 21 21 21 20
19 20 19 18 19 20 20 21 22 22 22 22 22 21 20 22 25 29 32 33 28 20 15 16 17 13 8 9 14 14 7 10 17 19 20 22 22 24 28 30 31 33 36 39 42 42 42 44 45 44 42 40 40 41 43 44 44 42 40 38 37 37 35 33 33 33 33 32 30 27 25 24 24 24 23 22 23 23 22 21 21 20 19 19 18
Wind_Direction
280 280 278 280 284 282 279 276 274 273 270 264 257 249 241 236 239 242 241 240 239 238 240 237 229 225 223 215 208 200 192 195 213 224 221 216 209 202 194 188 200 222 225 218 218 222 225 213 189 176 172 171 170 171 169 166 162 155 153 156 161 163 164 168 168 163 161 164 171 177 178 178 179 180 179 178 172 161 153 141 128 117 94 62 35
288 287 284 280 283 289 291 290 288 286 281 277 269 256 243 234 229 228 232 236 239 239 239 239 237 231 230 232 228 218 204 198 207 218 220 215 212 209 203 196 195 208 219 222 222 221 225 226 212 192 182 181 182 182 181 179 177 170 164 164 168 172 173 177 178 173 170 173 179 185 189 190 191 191 192 193 189 186 184 184 166 85 354 338 337
292 292 291 284 281 286 290 293 295 293 289 283 276 266 252 238 229 226 227 232 238 241 240 240 240 239 240 239 236 233 227 218 214 218 220 219 216 212 209 205 202 205 212 218 223 226 226 228 226 212 197 192 191 192 192 191 189 186 179 176 178 181 183 185 187 187 183 184 188 194 198 200 200 201 203 206 208 212 220 232 262 302 313 313 314
289 288 289 288 286 286 288 293 295 293 291 286 279 271 259 245 233 228 228 231 235 239 240 240 240 240 241 240 238 241 244 238 229 226 228 227 223 218 212 209 209 211 214 215 218 226 231 230 229 225 213 204 202 203 202 202 202 200 194 190 189 189 191 192 195 197 197 197 200 203 206 207 208 211 212 217 222 230 241 256 274 290 304 310 313
286 281 277 279 283 288 293 298 298 294 289 284 279 274 267 255 242 234 231 232 233 235 237 238 242 243 239 239 242 248 251 248 240 233 231 232 230 226 219 214 214 217 220 219 216 220 229 231 231 230 224 217 213 214 214 214 214 212 208 204 201 200 198 200 201 202 204 206 208 210 212 214 215 217 221 225 231 240 252 264 276 288 301 310 315
285 279 272 270 274 281 288 292 292 289 286 282 276 270 267 263 255 247 242 239 236 236 238 239 242 244 239 234 237 245 252 254 249 240 234 235 236 233 227 221 219 220 223 224 220 219 225 228 229 231 230 226 223 224 225 224 224 223 220 215 210 208 206 205 207 207 208 210 214 216 217 218 219 222 226 230 236 245 255 264 272 280 291 302 310
279 278 273 269 270 275 281 285 285 284 282 280 278 271 265 263 260 257 254 250 245 241 242 244 246 246 241 235 235 240 246 251 251 247 242 240 239 237 234 228 224 223 224 225 224 222 224 225 226 229 232 232 230 230 231 230 230 230 228 222 216 212 210 210 210 211 212 214 218 220 221 221 221 224 229 234 241 248 255 260 265 270 279 289 300
283 282 277 274 272 272 274 276 278 280 279 276 275 273 267 261 260 260 259 256 252 248 246 246 248 249 246 240 238 239 242 246 249 249 245 242 240 238 236 233 229 227 226 225 225 226 227 226 224 226 230 234 235 235 234 233 231 232 233 229 222 216 213 213 213 214 215 217 220 222 223 223 223 225 230 236 243 249 254 259 263 268 273 278 286
293 288 283 281 279 276 276 274 270 270 274 274 272 271 269 263 260 258 258 257 254 252 250 249 248 248 247 245 242 240 240 242 245 247 245 242 240 238 236 235 233 231 229 227 227 229 231 231 228 227 229 233 237 238 238 236 233 233 234 235 230 222 217 215 216 217 217 219 221 223 223 224 225 227 231 236 241 248 253 258 263 267 271 273 277
291 288 283 281 280 280 280 279 273 265 266 271 270 270 269 266 263 257 255 254 253 254 253 250 246 244 245 245 246 245 243 241 242 244 246 244 240 238 236 235 235 235 234 231 229 231 234 235 234 233 232 233 236 239 240 239 236 234 233 235 234 228 222 219 217 218 219 221 223 225 226 227 228 229 231 234 240 247 252 256 260 265 268 270 273
285 281 279 278 277 276 275 277 279 273 269 275 273 271 269 267 264 255 249 249 250 251 250 249 245 242 243 246 249 249 248 246 245 243 241 242 241 240 239 238 238 239 239 237 234 233 235 237 239 239 237 235 235 237 238 237 236 236 235 234 235 233 228 224 222 221 220 221 223 226 228 230 231 232 232 234 238 243 248 253 256 261 266 269 271
281 280 282 282 277 275 273 273 275 272 272 280 278 275 273 270 264 254 245 244 247 247 247 248 246 242 241 243 245 248 249 249 251 249 242 239 242 243 243 243 242 241 243 243 240 237 236 238 240 242 241 239 239 239 237 236 236 237 237 236 237 236 233 228 226 225 224 223 223 225 228 231 233 234 235 237 239 242 246 250 254 257 262 266 268
281 282 285 283 280 280 277 274 273 268 270 278 278 278 277 270 263 257 249 244 244 245 245 246 247 246 243 242 245 248 251 251 251 250 245 241 245 247 247 246 244 244 244 245 243 241 239 238 239 241 242 243 246 246 242 238 237 238 238 236 236 236 235 232 228 227 227 227 226 226 228 231 233 236 238 240 241 243 246 250 253 256 259 263 264
285 285 286 285 284 284 284 283 277 269 274 279 275 276 276 268 260 257 255 250 244 243 243 244 247 248 244 244 247 251 253 250 248 249 247 247 250 251 250 248 247 245 244 243 242 241 240 239 239 241 242 244 247 249 248 243 239 238 238 236 234 235 236 235 231 229 229 229 229 229 230 232 234 236 239 241 243 244 246 249 253 256 258 261 263
289 287 288 288 287 287 289 290 281 271 275 280 275 272 271 267 261 255 254 253 247 242 242 244 247 246 243 243 248 254 255 250 250 251 250 251 252 249 249 251 250 246 242 239 239 240 240 239 240 242 243 244 245 247 248 246 242 239 238 238 236 236 237 237 236 233 232 232 232 232 233 234 235 237 239 241 244 246 247 249 251 254 257 259 261
285 285 286 285 285 286 288 287 284 279 277 279 278 272 268 266 264 261 256 254 250 245 242 243 246 248 245 243 247 254 256 253 254 254 252 252 252 251 252 253 252 248 242 237 237 238 239 238 238 240 243 245 245 245 245 245 243 241 239 239 239 239 239 239 238 237 235 235 234 235 235 236 237 239 241 243 245 247 249 250 251 253 255 257 259
285 285 284 283 282 282 284 283 284 285 279 277 278 273 270 271 273 272 265 258 254 247 243 243 246 249 247 247 250 254 258 260 256 251 253 256 257 257 257 256 254 249 242 237 235 235 236 236 237 239 242 245 247 246 244 242 242 241 239 238 240 242 241 240 239 238 237 236 236 236 236 236 237 238 240 242 245 248 250 251 252 253 254 256 257
286 285 284 284 282 281 282 281 281 285 282 278 280 278 276 279 282 279 272 265 259 251 246 245 244 242 245 251 253 254 259 261 255 250 252 256 258 260 258 255 253 249 242 237 235 235 235 236 237 238 242 246 247 245 242 241 241 240 238 237 237 240 241 240 239 238 237 238 237 238 238 238 238 238 240 241 244 247 249 251 253 254 255 256 257
288 288 288 286 284 283 283 282 282 286 287 283 284 283 280 281 283 280 274 269 263 255 250 250 247 240 242 249 250 252 256 258 255 253 252 251 253 258 257 253 251 250 246 241 238 238 238 239 240 240 241 245 247 244 241 240 240 239 237 236 235 237 240 241 241 240 239 238 238 238 240 241 241 241 242 243 244 246 248 250 252 254 256 257 258
290 290 290 289 289 289 289 288 286 287 287 285 285 284 282 282 281 278 276 273 267 260 253 253 253 245 241 244 246 249 254 257 255 253 254 253 251 253 255 254 251 250 250 249 245 242 243 244 244 243 242 243 245 243 240 240 239 238 236 234 235 236 238 240 242 242 241 240 240 239 240 242 244 244 245 247 248 249 250 251 252 254 256 258 260
292 291 291 290 289 290 290 290 289 287 285 283 282 282 283 283 280 275 273 272 269 263 256 252 250 246 246 248 248 249 252 255 254 250 252 256 255 255 257 257 254 249 250 253 251 247 246 246 245 243 241 240 242 241 239 239 239 237 236 235 236 237 239 240 242 244 244 243 242 241 242 243 244 246 247 249 250 252 253 254 255 257 258 260 262
292 290 290 291 291 289 287 289 290 287 283 280 279 279 279 279 276 270 269 271 267 262 259 255 251 249 252 253 251 249 248 250 251 249 251 256 258 258 258 257 255 251 249 250 251 249 247 246 244 242 240 239 239 238 237 237 238 238 237 237 238 240 241 241 243 245 245 245 244 243 243 243 245 246 247 248 250 251 252 254 256 258 260 262 263
291 289 289 292 293 291 290 291 291 287 281 278 277 276 276 275 272 268 267 269 268 262 257 256 256 254 253 253 252 249 248 249 251 251 253 256 257 257 256 255 253 249 246 247 249 249 247 245 243 240 239 238 238 236 235 235 235 236 237 238 240 241 242 242 243 245 247 247 246 245 244 244 245 246 247 249 250 251 252 253 254 257 260 262 263
292 290 289 289 289 290 291 290 288 286 282 279 276 275 275 273 272 271 266 264 265 260 253 253 256 255 253 253 252 250 249 250 250 249 250 252 255 256 255 254 251 246 242 242 245 247 247 246 244 242 240 239 238 236 234 233 234 234 235 237 239 240 241 242 243 245 247 247 248 247 247 247 247 248 249 250 252 253 254 254 255 255 258 260 261
293 290 287 286 286 287 288 285 282 282 282 279 276 273 271 269 270 270 267 265 263 257 252 251 252 253 253 252 251 249 250 250 249 247 247 249 252 254 254 254 253 248 240 238 240 243 244 246 247 246 243 240 239 237 236 235 235 235 235 236 237 239 241 241 242 243 245 246 247 248 249 249 250 251 251 252 253 254 255 255 256 256 257 259 260
296 292 288 286 286 286 283 280 278 279 279 278 275 272 269 267 267 267 267 266 263 258 254 252 251 252 252 251 250 249 249 249 248 247 247 248 250 252 253 253 253 251 243 237 237 239 241 244 246 246 244 240 238 238 238 238 237 234 234 235 236 237 239 240 242 243 244 245 246 247 249 250 252 253 254 255 255 256 257 256 256 257 258 258 259
298 295 291 288 287 287 285 284 283 281 280 279 278 274 271 268 266 265 264 262 261 259 257 255 254 253 253 252 251 249 248 247 247 247 248 250 251 250 249 249 250 250 245 238 235 237 240 243 243 245 245 241 237 237 238 237 235 232 232 233 233 235 237 239 241 242 243 244 246 247 248 250 252 254 256 257 258 258 259 259 258 257 258 259 260
301 298 296 293 291 291 290 290 289 286 282 280 280 279 275 272 269 267 265 262 261 260 260 259 257 256 256 255 253 251 249 248 247 247 248 249 250 249 246 245 246 248 247 240 234 234 239 241 241 242 244 243 238 237 236 233 231 230 230 231 232 233 234 236 237 239 240 241 243 245 246 248 250 252 254 255 256 258 258 259 259 259 259 260 261
305 302 300 298 296 294 293 292 291 289 285 281 279 278 276 273 270 268 267 265 263 261 261 261 260 258 256 255 254 253 251 250 250 249 248 248 248 247 245 244 244 247 249 245 235 231 235 238 238 239 243 244 241 238 236 233 230 228 228 229 231 231 232 234 237 238 240 241 243 244 245 247 248 250 251 252 254 255 256 257 258 258 258 259 260
305 301 299 297 295 294 292 291 290 290 288 285 281 278 276 273 270 267 266 266 265 263 262 261 260 259 256 254 254 253 253 253 253 252 250 248 247 247 246 245 244 245 248 249 241 231 231 235 235 236 239 242 242 238 235 232 228 227 227 228 230 231 233 237 240 242 243 244 245 247 248 249 250 250 250 251 252 254 255 256 256 257 257 258 258
306 302 299 297 295 293 292 292 291 291 292 291 288 284 280 276 273 269 266 264 264 263 261 260 260 259 257 255 253 253 253 253 254 253 251 249 248 247 247 246 245 244 245 250 247 233 228 231 232 232 236 239 240 237 232 229 227 225 225 226 227 229 233 237 241 243 246 248 249 250 251 251 252 252 251 251 252 253 255 256 257 258 258 258 259
309 307 305 303 301 298 296 295 294 295 297 297 294 290 286 283 279 275 269 265 263 262 260 260 259 257 256 255 254 253 253 253 254 254 251 249 248 247 247 247 246 244 242 246 248 238 227 229 229 228 232 235 237 234 229 227 227 225 223 223 223 226 230 234 240 246 250 252 253 253 253 253 252 253 254 254 254 255 256 258 259 259 259 259 260
316 315 313 310 308 305 302 297 292 293 296 297 296 293 290 287 285 281 275 268 264 262 261 259 258 257 254 253 254 254 253 252 252 252 250 249 248 247 248 249 247 243 239 242 247 242 231 227 227 225 227 232 233 231 228 228 228 227 224 223 224 226 230 235 241 248 253 256 257 256 254 253 252 253 254 255 256 257 259 260 261 262 262 261 261
322 321 319 316 314 314 311 302 295 292 293 292 292 293 293 290 286 282 279 273 266 263 261 259 258 256 255 253 253 253 254 252 250 250 250 249 250 250 249 250 248 242 237 239 245 244 235 229 227 224 224 229 229 227 228 230 231 231 229 227 228 230 233 238 243 250 257 262 264 263 261 258 255 254 254 255 257 258 260 261 261 262 263 263 264
324 323 321 319 318 318 317 313 306 300 297 293 290 291 295 295 289 282 279 276 269 263 261 259 257 256 255 254 253 253 253 253 250 249 249 249 250 250 249 249 249 243 238 238 243 245 240 233 228 225 224 227 227 226 228 231 234 235 234 233 235 235 235 239 244 248 257 266 270 271 269 266 262 258 256 256 257 259 260 261 261 261 262 263 264
323 323 323 323 321 316 314 317 316 312 309 305 297 291 291 295 292 283 278 277 272 266 262 259 257 255 255 254 253 252 252 252 251 250 248 248 248 247 246 247 248 245 241 240 242 244 241 235 229 226 225 226 225 224 226 231 236 238 238 238 239 239 239 241 246 250 256 264 270 275 277 275 270 265 260 258 258 259 261 262 262 262 261 261 261
325 326 326 327 325 318 311 312 317 321 320 312 305 298 295 296 295 287 279 275 272 268 265 261 258 256 254 253 252 252 253 252 251 249 246 245 245 244 243 244 247 247 244 242 242 242 240 235 230 226 225 225 224 223 225 229 234 238 240 240 240 242 243 244 250 255 259 262 268 275 281 282 279 273 266 261 259 259 261 262 263 263 262 260 259
329 330 331 331 329 324 317 313 316 322 323 318 314 312 309 304 297 290 282 276 272 269 267 265 261 256 253 252 251 251 253 252 250 248 244 242 242 241 240 242 245 247 247 245 243 242 238 235 232 228 225 225 224 223 225 228 232 236 239 240 240 243 245 247 252 257 260 263 266 273 279 284 285 280 271 264 260 259 260 261 262 262 262 260 259
332 335 337 336 333 329 322 316 319 324 325 326 325 320 317 311 302 294 285 279 274 271 270 269 264 256 253 252 250 250 252 252 250 248 244 242 241 241 240 240 242 244 246 245 243 241 238 235 232 228 226 225 225 225 225 227 230 234 238 240 241 243 247 249 252 256 261 265 268 272 276 282 287 284 274 264 259 259 259 260 261 262 261 260 259
334 338 341 340 337 333 327 323 326 328 330 338 341 332 322 316 309 302 293 283 276 273 272 272 269 262 255 253 251 252 253 253 251 249 248 246 244 242 240 239 239 242 244 244 242 240 238 236 233 229 227 226 225 226 226 227 230 233 237 241 242 244 248 252 254 256 261 265 268 270 273 278 284 285 276 265 260 259 259 260 261 262 261 258 256
336 340 342 342 340 339 335 332 330 329 334 345 351 347 337 324 312 307 301 291 280 274 272 275 277 270 259 254 253 254 255 255 253 250 249 247 246 244 241 238 238 240 242 243 242 238 237 237 235 231 228 227 226 226 227 228 231 233 236 239 242 244 248 251 254 257 260 264 267 268 271 275 281 283 277 266 261 261 261 262 262 262 261 258 255
336 339 341 340 339 339 339 336 330 330 336 343 348 351 349 340 324 312 307 299 286 276 271 273 278 274 266 262 261 259 259 258 256 253 250 248 246 245 243 241 239 239 239 241 241 239 237 237 236 233 229 227 226 226 228 230 232 234 236 238 241 245 248 250 252 254 258 263 266 267 269 273 278 281 276 266 262 262 264 265 265 264 263 260 257
335 337 338 337 338 338 338 337 335 334 334 338 346 351 350 347 340 324 313 306 293 281 272 270 275 274 270 270 268 265 261 258 257 255 251 249 247 245 243 241 240 238 237 238 239 239 237 237 236 234 231 228 226 228 229 230 232 235 236 238 241 245 248 250 251 252 256 262 266 267 269 273 277 279 274 265 262 262 263 265 265 263 262 261 258
334 335 336 337 338 337 337 337 337 335 334 338 347 350 346 345 343 334 322 311 302 291 277 268 268 269 269 270 269 266 261 256 254 253 250 248 246 244 241 240 239 238 236 236 237 238 237 236 235 233 232 229 228 228 229 230 233 235 236 237 241 244 246 249 251 253 255 260 265 268 270 274 277 276 269 262 260 260 260 261 262 262 261 259 258
332 333 334 337 338 339 339 337 334 333 337 342 345 345 343 342 341 338 331 317 306 298 287 277 272 269 268 269 268 266 260 255 252 251 251 248 246 243 241 238 238 237 236 234 235 236 236 235 234 232 231 230 229 227 228 230 234 236 235 236 239 242 244 247 250 252 255 259 265 269 273 277 277 271 262 258 258 258 256 255 257 260 260 258 257
330 331 332 335 337 338 337 336 334 333 336 340 340 341 342 341 342 343 338 324 310 304 299 288 279 276 275 273 271 268 262 255 252 251 250 248 246 242 239 238 237 237 235 233 232 233 234 233 233 231 230 230 229 227 228 230 233 234 234 235 238 241 243 245 248 251 255 261 266 271 276 277 272 263 257 256 257 257 254 250 250 254 256 256 257
329 329 330 332 335 336 333 332 331 330 331 334 336 340 342 340 342 346 343 329 314 316 317 301 281 276 279 278 275 273 267 257 251 251 249 246 243 240 238 239 239 237 235 231 230 231 232 232 232 232 231 231 230 228 228 230 232 233 234 235 238 241 242 245 249 252 257 263 268 273 275 269 260 255 254 256 257 256 252 249 247 249 253 254 254
327 328 328 329 334 336 332 328 327 326 327 330 333 338 342 341 342 347 348 338 320 319 330 324 296 273 272 277 275 273 271 262 253 249 248 245 242 240 241 242 241 238 234 230 228 228 230 231 231 231 232 232 231 230 230 230 231 232 234 235 237 241 244 247 250 254 259 264 269 271 268 259 253 253 253 255 257 253 249 249 249 249 251 252 252
325 326 326 327 333 337 333 329 326 326 326 327 331 337 343 344 343 348 352 347 332 319 323 332 328 291 275 282 282 273 269 263 255 249 247 247 243 242 243 242 239 236 231 226 225 225 226 228 228 228 230 230 230 230 229 230 230 232 235 235 236 241 246 248 250 254 258 263 266 264 259 254 252 253 253 254 254 249 246 248 248 248 249 250 249
326 326 327 329 333 335 333 329 327 328 328 328 332 338 344 347 347 351 354 351 346 335 318 322 339 334 299 297 301 292 271 251 247 246 246 247 244 240 239 238 235 232 227 223 222 223 224 226 227 226 227 228 228 228 228 229 231 235 238 236 235 240 245 247 249 253 257 261 261 258 254 252 252 252 252 251 249 245 243 243 244 244 245 246 245
326 326 329 332 332 333 332 330 328 330 331 330 333 339 347 351 351 354 356 355 353 352 335 328 340 345 330 319 318 319 304 233 235 246 248 246 243 236 233 233 233 230 225 222 221 221 222 226 227 226 226 227 228 228 228 229 232 236 238 236 236 239 242 244 247 251 256 259 257 253 251 250 250 250 249 245 242 240 239 238 238 238 239 241 242
Height
3217 3217 3216 3216 3216 3216 3216 3217 3218 3218 3219 3219 3219 3219 3219 3218 3217 3217 3217 3218 3219 3219 3219 3219 3219 3219 3220 3220 3220 3220 3220 3221 3221 3222 3223 3223 3223 3223 3223 3223 3224 3225 3225 3225 3227 3227 3228 3228 3228 3228 3228 3229 3230 3231 3232 3232 3232 3233 3233 3234 3235 3235 3235 3236 3236 3236 3236 3237 3237 3238 3238 3238 3239 3239 3239 3240 3240 3240 3240 3240 3240 3240 3240 3240 3240
3216 3216 3216 3215 3215 3215 3216 3216 3217 3217 3218 3218 3218 3218 3218 3218 3217 3216 3216 3217 3217 3218 3218 3218 3218 3218 3218 3219 3220 3220 3219 3219 3220 3220 3221 3222 3222 3222 3222 3222 3223 3224 3224 3224 3225 3226 3227 3228 3228 3228 3228 3228 3230 3230 3231 3232 3232 3232 3233 3234 3234 3235 3235 3236 3236 3236 3236 3237 3237 3237 3238 3238 3238 3239 3239 3240 3240 3240 3240 3240 3240 3240 3240 3240 3240
3216 3216 3216 3215 3215 3215 3215 3215 3216 3216 3216 3217 3217 3217 3217 3217 3217 3216 3216 3216 3216 3216 3216 3217 3217 3217 3217 3218 3219 3219 3219 3218 3218 3219 3219 3220 3220 3221 3221 3221 3221 3222 3223 3223 3224 3225 3226 3227 3228 3228 3228 3228 3229 3230 3231 3231 3232 3232 3233 3233 3234 3234 3235 3235 3236 3236 3236 3236 3237 3237 3237 3238 3238 3238 3239 3239 3240 3240 3240 3240 3240 3240 3240 3240 3240
3215 3215 3216 3216 3215 3215 3214 3214 3215 3215 3215 3215 3215 3216 3216 3216 3216 3216 3216 3215 3215 3215 3215 3215 3216 3216 3217 3217 3217 3218 3218 3217 3217 3217 3217 3218 3219 3219 3220 3220 3220 3221 3221 3222 3223 3224 3225 3226 3227 3227 3227 3227 3228 3229 3230 3230 3231 3232 3232 3233 3233 3233 3234 3234 3235 3235 3236 3236 3236 3236 3237 3237 3238 3238 3238 3239 3239 3239 3240 3240 3240 3240 3240 3240 3240
3214 3214 3215 3215 3215 3215 3215 3215 3214 3214 3214 3214 3214 3214 3214 3214 3215 3215 3215 3214 3214 3214 3214 3214 3215 3215 3215 3216 3216 3216 3216 3216 3216 3216 3216 3216 3217 3217 3218 3218 3218 3219 3220 3221 3222 3223 3224 3225 3226 3226 3226 3226 3227 3228 3229 3230 3230 3231 3232 3232 3233 3233 3233 3234 3234 3235 3235 3235 3236 3236 3236 3237 3237 3238 3238 3238 3239 3239 3239 3239 3239 3239 3239 3239 3239
3212 3213 3213 3213 3214 3214 3214 3214 3214 3213 3213 3212 3212 3212 3212 3212 3213 3213 3213 3213 3213 3212 3212 3213 3214 3214 3214 3214 3214 3214 3214 3215 3214 3214 3214 3215 3215 3216 3216 3216 3217 3218 3219 3219 3220 3221 3222 3224 3225 3225 3226 3226 3226 3226 3227 3228 3229 3230 3231 3231 3232 3232 3232 3233 3233 3234 3234 3235 3235 3235 3235 3236 3236 3237 3237 3238 3238 3238 3238 3238 3238 3238 3239 3239 3239
3209 3210 3211 3211 3212 3212 3213 3213 3212 3211 3211 3211 3210 3210 3210 3210 3209 3210 3210 3211 3211 3211 3211 3211 3211 3212 3212 3212 3212 3211 3212 3213 3213 3213 3213 3213 3214 3214 3215 3215 3215 3216 3217 3218 3219 3219 3221 3222 3223 3224 3225 3225 3225 3225 3226 3227 3228 3229 3229 3230 3230 3231 3231 3231 3232 3233 3233 3233 3234 3234 3234 3235 3235 3236 3236 3237 3237 3237 3237 3237 3237 3238 3238 3238 3238
3208 3209 3209 3209 3210 3210 3210 3209 3209 3209 3208 3208 3208 3207 3207 3206 3206 3206 3206 3207 3208 3208 3208 3208 3209 3209 3209 3209 3208 3208 3209 3210 3210 3211 3211 3211 3212 3212 3213 3213 3214 3214 3215 3216 3217 3218 3219 3220 3221 3222 3223 3223 3224 3224 3225 3225 3226 3227 3228 3228 3229 3229 3230 3230 3231 3231 3232 3232 3232 3233 3233 3233 3234 3234 3235 3235 3236 3236 3236 3236 3236 3237 3237 3237 3237
3209 3208 3207 3207 3208 3208 3207 3206 3204 3203 3204 3204 3204 3204 3204 3203 3202 3202 3202 3203 3204 3205 3205 3206 3206 3206 3206 3206 3205 3205 3206 3207 3207 3208 3209 3209 3210 3210 3211 3212 3212 3213 3213 3214 3215 3216 3217 3218 3219 3220 3221 3222 3222 3223 3223 3224 3224 3225 3226 3227 3227 3228 3228 3229 3229 3230 3230 3231 3231 3231 3232 3232 3233 3233 3234 3234 3235 3235 3235 3235 3235 3236 3236 3236 3236
3208 3206 3206 3205 3206 3207 3205 3203 3200 3198 3198 3198 3198 3199 3199 3199 3199 3199 3198 3198 3199 3201 3202 3203 3203 3203 3203 3203 3203 3204 3204 3204 3204 3205 3206 3207 3208 3208 3209 3210 3210 3211 3211 3212 3213 3214 3215 3216 3217 3218 3219 3219 3220 3221 3221 3222 3222 3223 3224 3225 3226 3226 3227 3227 3227 3228 3228 3229 3230 3230 3230 3231 3231 3232 3232 3233 3233 3234 3234 3234 3234 3234 3235 3235 3235
3205 3204 3203 3202 3202 3202 3201 3199 3196 3195 3194 3192 3192 3193 3193 3194 3195 3196 3195 3195 3196 3197 3198 3199 3199 3200 3201 3201 3202 3202 3202 3202 3202 3203 3204 3204 3205 3206 3207 3208 3208 3209 3209 3210 3211 3212 3213 3214 3215 3216 3217 3217 3218 3219 3219 3220 3221 3221 3222 3223 3223 3224 3225 3226 3226 3226 3227 3227 3228 3228 3229 3229 3230 3230 3231 3231 3232 3232 3232 3233 3233 3233 3233 3234 3234
3201 3199 3199 3198 3196 3195 3194 3194 3193 3192 3191 3188 3188 3189 3189 3191 3192 3192 3192 3192 3192 3193 3195 3195 3196 3197 3197 3198 3198 3198 3199 3200 3200 3201 3201 3202 3203 3203 3204 3205 3206 3207 3207 3208 3208 3209 3210 3211 3212 3214 3215 3215 3216 3216 3217 3218 3218 3219 3220 3221 3221 3222 3223 3224 3224 3225 3225 3225 3226 3227 3227 3228 3228 3229 3229 3230 3230 3231 3231 3231 3232 3232 3232 3232 3233
3196 3194 3193 3192 3190 3189 3189 3190 3189 3189 3187 3185 3186 3186 3186 3188 3189 3189 3190 3189 3190 3191 3191 3191 3192 3193 3194 3194 3194 3195 3196 3197 3197 3198 3199 3200 3201 3201 3202 3202 3203 3204 3205 3205 3206 3206 3207 3208 3209 3211 3212 3213 3214 3214 3215 3215 3216 3217 3218 3219 3219 3220 3221 3222 3222 3223 3223 3224 3224 3225 3225 3226 3226 3227 3227 3228 3228 3229 3229 3230 3230 3230 3231 3231 3231
3190 3188 3187 3184 3184 3184 3183 3184 3185 3184 3184 3183 3183 3184 3184 3185 3185 3186 3187 3187 3187 3188 3187 3187 3188 3189 3191 3191 3190 3192 3194 3195 3195 3195 3196 3197 3198 3198 3199 3199 3200 3201 3202 3202 3203 3203 3204 3205 3206 3208 3209 3210 3211 3212 3212 3213 3214 3215 3215 3216 3217 3218 3218 3219 3220 3221 3221 3222 3222 3223 3223 3224 3224 3225 3225 3226 3226 3227 3227 3228 3228 3229 3229 3230 3230
3184 3182 3181 3179 3178 3178 3178 3179 3179 3179 3179 3179 3179 3180 3181 3182 3182 3183 3183 3183 3184 3184 3184 3184 3185 3186 3187 3187 3187 3188 3189 3191 3192 3193 3193 3194 3194 3195 3196 3196 3197 3198 3198 3199 3199 3200 3201 3202 3204 3205 3206 3207 3208 3209 3210 3210 3211 3212 3213 3214 3215 3215 3216 3217 3218 3219 3219 3220 3220 3221 3221 3222 3222 3223 3223 3224 3224 3225 3225 3226 3227 3227 3228 3228 3228
3182 3180 3178 3176 3175 3176 3176 3176 3176 3175 3175 3176 3175 3176 3177 3178 3178 3178 3179 3179 3180 3181 3180 3181 3181 3181 3183 3183 3184 3184 3184 3187 3189 3190 3190 3190 3191 3192 3193 3194 3195 3195 3195 3195 3196 3197 3198 3199 3200 3201 3203 3204 3205 3206 3207 3208 3209 3209 3210 3212 3213 3213 3214 3215 3216 3217 3217 3218 3218 3219 3219 3220 3220 3221 3221 3221 3222 3223 3223 3224 3224 3225 3226 3226 3226
3178 3176 3174 3172 3172 3173 3173 3173 3173 3173 3173 3172 3172 3172 3173 3174 3174 3174 3174 3175 3176 3176 3176 3176 3177 3177 3178 3179 3180 3180 3181 3185 3186 3186 3187 3187 3188 3189 3190 3191 3192 3192 3192 3192 3193 3194 3195 3196 3197 3198 3199 3200 3201 3202 3203 3204 3205 3206 3207 3209 3210 3211 3212 3212 3213 3214 3215 3215 3216 3216 3217 3217 3218 3218 3219 3219 3220 3220 3221 3222 3222 3223 3224 3224 3224
3174 3173 3170 3167 3167 3168 3168 3168 3169 3169 3169 3168 3168 3169 3169 3170 3170 3170 3170 3171 3172 3171 3172 3173 3173 3172 3173 3175 3176 3177 3178 3181 3182 3182 3184 3185 3185 3186 3187 3188 3189 3189 3189 3189 3190 3190 3191 3192 3193 3195 3196 3197 3198 3198 3200 3201 3202 3203 3204 3206 3207 3208 3209 3209 3210 3211 3212 3213 3213 3214 3214 3215 3216 3216 3216 3217 3218 3218 3219 3219 3220 3221 3222 3222 3222
3169 3168 3167 3164 3162 3162 3162 3163 3164 3164 3163 3163 3163 3164 3165 3165 3165 3165 3166 3167 3167 3167 3169 3170 3168 3168 3169 3171 3173 3173 3174 3177 3178 3179 3180 3181 3182 3183 3183 3184 3185 3186 3186 3186 3186 3187 3188 3189 3190 3191 3193 3194 3194 3195 3196 3197 3199 3200 3201 3202 3204 3205 3206 3206 3207 3208 3209 3210 3210 3211 3212 3213 3213 3214 3214 3215 3215 3216 3217 3217 3218 3219 3220 3220 3220
3165 3164 3163 3161 3158 3157 3157 3157 3158 3159 3159 3159 3159 3159 3160 3160 3160 3161 3161 3162 3163 3163 3165 3166 3166 3166 3167 3167 3168 3169 3170 3172 3174 3175 3175 3176 3178 3179 3180 3181 3182 3182 3183 3183 3183 3183 3184 3185 3186 3188 3189 3190 3191 3192 3193 3194 3195 3197 3198 3199 3200 3201 3202 3203 3204 3205 3206 3207 3208 3209 3209 3210 3211 3211 3212 3213 3213 3214 3215 3215 3216 3217 3217 3218 3218
3160 3159 3159 3158 3156 3155 3154 3154 3155 3155 3155 3155 3155 3155 3156 3156 3155 3155 3156 3156 3158 3158 3160 3162 3163 3164 3164 3163 3163 3165 3166 3168 3169 3170 3171 3172 3174 3176 3178 3178 3178 3179 3180 3180 3180 3180 3180 3181 3182 3184 3185 3186 3187 3189 3190 3191 3192 3193 3195 3196 3197 3198 3199 3200 3201 3202 3203 3204 3205 3206 3206 3207 3208 3209 3209 3210 3211 3212 3212 3213 3214 3214 3215 3215 3216
3156 3155 3154 3154 3154 3153 3152 3151 3151 3151 3151 3151 3151 3151 3152 3152 3152 3153 3152 3152 3153 3154 3156 3158 3159 3160 3160 3159 3159 3160 3162 3164 3165 3166 3167 3168 3170 3173 3174 3174 3174 3175 3176 3177 3177 3177 3177 3178 3179 3180 3182 3183 3184 3185 3186 3187 3189 3190 3192 3193 3194 3195 3196 3197 3198 3198 3199 3201 3202 3203 3203 3204 3205 3206 3206 3207 3208 3209 3210 3210 3211 3212 3212 3213 3213
3151 3150 3150 3150 3149 3149 3149 3148 3147 3146 3147 3147 3147 3147 3148 3148 3150 3150 3149 3149 3150 3150 3152 3154 3155 3155 3156 3155 3155 3156 3157 3159 3161 3162 3162 3163 3166 3168 3170 3170 3170 3171 3172 3173 3173 3174 3174 3175 3175 3177 3178 3179 3180 3181 3182 3184 3185 3187 3188 3189 3190 3191 3192 3193 3194 3195 3196 3197 3198 3199 3200 3201 3202 3203 3203 3204 3205 3205 3206 3207 3208 3209 3209 3210 3210
3147 3146 3146 3146 3146 3145 3144 3144 3143 3142 3143 3143 3143 3144 3144 3143 3143 3144 3145 3145 3145 3146 3147 3149 3150 3150 3150 3150 3151 3152 3153 3155 3157 3158 3158 3159 3161 3163 3166 3166 3166 3167 3169 3169 3170 3171 3171 3172 3173 3174 3175 3175 3177 3178 3179 3180 3181 3183 3184 3186 3187 3188 3189 3190 3191 3192 3193 3194 3195 3196 3197 3197 3198 3199 3200 3201 3202 3202 3203 3204 3205 3206 3206 3207 3207
3143 3142 3141 3141 3141 3141 3140 3140 3140 3139 3139 3139 3139 3140 3140 3139 3137 3138 3140 3140 3141 3141 3142 3143 3144 3145 3145 3146 3146 3148 3149 3151 3153 3153 3154 3155 3156 3158 3161 3162 3162 3163 3165 3165 3166 3167 3168 3169 3170 3171 3172 3172 3174 3174 3175 3177 3178 3180 3181 3182 3183 3184 3185 3186 3187 3188 3189 3190 3191 3192 3193 3194 3195 3196 3197 3198 3199 3199 3200 3201 3201 3202 3203 3203 3204
3138 3137 3137 3137 3136 3137 3137 3136 3136 3136 3135 3135 3135 3135 3135 3135 3134 3133 3134 3135 3136 3136 3137 3138 3139 3139 3140 3141 3142 3143 3145 3146 3148 3148 3149 3150 3152 3154 3156 3158 3158 3159 3160 3162 3163 3163 3164 3166 3167 3168 3169 3170 3171 3171 3173 3174 3175 3177 3177 3178 3179 3180 3181 3182 3183 3184 3185 3186 3187 3188 3189 3190 3191 3192 3192 3193 3195 3195 3196 3197 3198 3198 3199 3200 3200
3135 3133 3133 3132 3132 3132 3132 3132 3132 3132 3131 3130 3130 3130 3130 3129 3129 3128 3128 3129 3130 3130 3131 3132 3133 3134 3135 3136 3137 3138 3139 3141 3142 3143 3144 3145 3147 3149 3151 3153 3153 3153 3155 3157 3158 3159 3161 3163 3164 3165 3166 3167 3168 3168 3169 3170 3171 3173 3173 3174 3175 3176 3177 3178 3179 3180 3181 3182 3183 3184 3185 3186 3187 3187 3188 3189 3190 3191 3192 3193 3193 3194 3195 3195 3196
3132 3130 3129 3129 3128 3128 3128 3127 3127 3127 3127 3126 3125 3125 3125 3124 3123 3123 3123 3123 3124 3123 3124 3125 3126 3128 3129 3130 3131 3132 3134 3135 3136 3138 3139 3140 3141 3143 3145 3147 3148 3148 3150 3151 3153 3155 3158 3160 3161 3163 3164 3164 3165 3165 3165 3166 3167 3169 3170 3170 3172 3173 3174 3175 3176 3177 3178 3179 3179 3180 3181 3182 3183 3183 3184 3185 3186 3187 3187 3188 3188 3189 3190 3191 3192
3128 3128 3126 3125 3125 3124 3124 3123 3123 3122 3122 3121 3120 3119 3119 3119 3118 3118 3118 3118 3118 3118 3118 3118 3120 3122 3123 3124 3125 3126 3128 3129 3130 3132 3134 3135 3136 3137 3139 3141 3142 3143 3144 3146 3148 3151 3155 3157 3158 3160 3161 3162 3162 3162 3162 3163 3164 3165 3166 3167 3169 3170 3171 3172 3173 3174 3174 3175 3176 3176 3177 3178 3179 3179 3180 3181 3181 3182 3183 3183 3183 3184 3185 3186 3187
3125 3124 3123 3122 3121 3120 3120 3119 3118 3117 3117 3116 3115 3114 3113 3113 3113 3113 3113 3114 3113 3113 3113 3114 3114 3116 3117 3118 3119 3120 3122 3123 3125 3127 3128 3129 3130 3131 3133 3135 3137 3137 3139 3140 3142 3146 3150 3152 3154 3157 3158 3159 3159 3159 3160 3160 3161 3162 3163 3164 3165 3167 3168 3169 3169 3170 3171 3172 3172 3173 3173 3174 3175 3175 3176 3176 3177 3178 3178 3179 3179 3179 3180 3181 3182
3122 3121 3120 3119 3118 3116 3115 3115 3114 3113 3112 3111 3110 3110 3108 3107 3107 3108 3108 3108 3107 3107 3108 3109 3110 3110 3111 3112 3113 3115 3116 3117 3118 3120 3122 3123 3125 3126 3127 3129 3130 3132 3134 3135 3136 3140 3145 3148 3151 3153 3154 3155 3155 3156 3157 3157 3158 3159 3160 3161 3162 3163 3164 3165 3166 3167 3167 3168 3169 3169 3170 3170 3171 3171 3172 3173 3173 3174 3174 3174 3175 3175 3176 3176 3177
3119 3118 3116 3115 3114 3113 3111 3110 3110 3109 3108 3107 3106 3105 3104 3102 3102 3102 3102 3102 3101 3101 3102 3102 3104 3105 3105 3106 3108 3109 3110 3111 3112 3114 3116 3117 3119 3120 3121 3123 3124 3126 3129 3130 3130 3134 3140 3143 3146 3149 3150 3151 3152 3153 3154 3155 3156 3156 3157 3158 3159 3160 3161 3162 3163 3163 3164 3165 3165 3166 3166 3167 3167 3168 3168 3169 3169 3170 3170 3171 3171 3171 3172 3172 3173
3117 3115 3114 3112 3110 3109 3108 3107 3106 3105 3104 3103 3101 3100 3099 3097 3096 3096 3096 3095 3094 3094 3095 3096 3097 3098 3099 3100 3101 3103 3105 3105 3106 3108 3110 3111 3113 3114 3115 3116 3118 3120 3122 3124 3125 3128 3133 3137 3141 3144 3146 3147 3148 3150 3152 3152 3153 3154 3155 3155 3156 3157 3158 3159 3160 3160 3161 3161 3162 3162 3162 3163 3163 3164 3164 3165 3166 3166 3167 3167 3167 3167 3168 3168 3169
3115 3113 3111 3109 3108 3106 3105 3104 3102 3101 3100 3098 3097 3095 3094 3092 3091 3089 3089 3089 3088 3088 3088 3089 3090 3091 3092 3094 3095 3097 3099 3099 3100 3102 3104 3105 3106 3108 3110 3111 3112 3114 3117 3119 3121 3123 3127 3132 3135 3139 3141 3142 3144 3146 3148 3150 3150 3151 3152 3153 3154 3154 3155 3156 3156 3157 3157 3158 3158 3158 3159 3159 3160 3160 3161 3161 3162 3162 3163 3163 3163 3164 3164 3164 3165
3113 3111 3109 3107 3106 3104 3102 3101 3099 3098 3096 3095 3093 3091 3089 3087 3085 3084 3083 3082 3082 3082 3081 3082 3083 3085 3086 3087 3089 3091 3092 3093 3094 3096 3098 3100 3101 3102 3104 3105 3107 3109 3112 3114 3116 3118 3121 3126 3130 3133 3136 3138 3140 3142 3145 3146 3146 3147 3148 3150 3150 3151 3152 3153 3153 3154 3154 3155 3155 3155 3156 3156 3156 3157 3157 3158 3158 3158 3159 3159 3160 3160 3160 3161 3161
3112 3109 3107 3105 3103 3102 3100 3098 3096 3095 3093 3091 3089 3087 3084 3082 3080 3078 3077 3077 3076 3076 3076 3076 3078 3079 3079 3081 3083 3085 3086 3087 3089 3090 3092 3094 3095 3097 3099 3101 3102 3104 3107 3109 3111 3113 3116 3120 3124 3127 3131 3134 3136 3138 3139 3141 3142 3143 3144 3146 3147 3148 3149 3150 3150 3151 3151 3151 3152 3152 3153 3153 3153 3153 3153 3154 3154 3154 3155 3155 3156 3156 3157 3157 3157
3110 3108 3105 3103 3101 3099 3097 3095 3093 3092 3090 3087 3085 3082 3079 3077 3075 3073 3072 3071 3071 3071 3071 3071 3072 3073 3073 3074 3077 3079 3080 3081 3082 3084 3086 3088 3090 3092 3094 3096 3098 3100 3102 3104 3106 3108 3111 3114 3118 3121 3125 3128 3130 3132 3134 3136 3138 3139 3140 3142 3144 3145 3146 3147 3148 3148 3148 3148 3148 3149 3150 3150 3150 3150 3150 3150 3150 3151 3151 3152 3152 3153 3153 3153 3153
3108 3106 3104 3101 3098 3096 3095 3093 3091 3090 3088 3085 3082 3079 3076 3073 3071 3069 3067 3066 3066 3066 3066 3066 3066 3067 3068 3069 3071 3073 3074 3075 3077 3078 3081 3083 3085 3087 3089 3092 3094 3095 3097 3099 3101 3103 3106 3109 3112 3115 3119 3122 3125 3127 3129 3131 3133 3135 3136 3138 3140 3141 3143 3144 3145 3145 3144 3144 3145 3146 3146 3146 3146 3146 3146 3146 3146 3147 3147 3148 3148 3149 3149 3149 3149
3107 3104 3102 3099 3096 3095 3093 3091 3090 3088 3085 3082 3080 3077 3073 3070 3068 3065 3063 3062 3062 3062 3062 3062 3062 3062 3063 3064 3065 3066 3068 3069 3071 3073 3075 3077 3079 3081 3084 3087 3089 3090 3091 3093 3096 3098 3100 3103 3106 3109 3113 3116 3119 3122 3125 3127 3128 3130 3132 3134 3136 3138 3139 3140 3141 3141 3141 3141 3142 3142 3143 3143 3143 3143 3143 3142 3142 3143 3143 3144 3144 3145 3145 3145 3145
3105 3103 3100 3098 3095 3093 3092 3090 3087 3085 3083 3080 3077 3074 3071 3067 3065 3062 3060 3058 3058 3058 3058 3058 3058 3058 3058 3059 3060 3061 3062 3064 3065 3067 3069 3071 3073 3075 3078 3081 3083 3084 3085 3088 3090 3092 3095 3097 3100 3103 3107 3110 3114 3117 3120 3122 3123 3126 3129 3131 3132 3134 3135 3136 3136 3137 3137 3138 3138 3139 3139 3139 3139 3139 3139 3139 3139 3139 3139 3140 3140 3141 3141 3141 3141
3103 3101 3099 3097 3094 3092 3091 3088 3086 3084 3081 3077 3074 3071 3068 3064 3061 3059 3057 3055 3054 3054 3055 3054 3054 3054 3055 3055 3056 3056 3057 3058 3060 3061 3063 3065 3066 3068 3071 3074 3076 3078 3080 3082 3084 3086 3089 3092 3094 3098 3101 3104 3108 3112 3114 3117 3120 3123 3126 3126 3127 3130 3131 3131 3132 3133 3134 3134 3134 3135 3136 3136 3136 3136 3136 3136 3135 3135 3136 3136 3137 3137 3137 3137 3137
3101 3099 3097 3095 3093 3091 3089 3087 3085 3082 3078 3075 3073 3070 3065 3061 3058 3056 3054 3053 3051 3050 3050 3051 3051 3050 3050 3051 3052 3052 3052 3053 3054 3055 3057 3058 3060 3062 3065 3067 3070 3072 3074 3076 3078 3081 3083 3086 3089 3093 3095 3098 3103 3107 3111 3114 3117 3120 3121 3122 3123 3126 3126 3126 3128 3130 3130 3130 3130 3131 3132 3132 3132 3132 3132 3132 3132 3132 3132 3133 3133 3133 3134 3134 3134
3099 3097 3095 3094 3092 3090 3088 3086 3084 3080 3076 3074 3072 3068 3063 3059 3056 3053 3051 3050 3048 3047 3046 3046 3046 3046 3046 3047 3047 3047 3046 3047 3048 3049 3050 3052 3054 3056 3058 3061 3063 3066 3068 3070 3072 3075 3077 3080 3084 3088 3090 3093 3099 3103 3107 3110 3113 3115 3117 3118 3119 3120 3121 3122 3124 3126 3127 3126 3125 3126 3127 3128 3128 3128 3128 3129 3129 3128 3128 3129 3129 3129 3130 3131 3131
3097 3095 3093 3092 3090 3089 3086 3083 3082 3080 3076 3073 3070 3066 3062 3059 3055 3052 3049 3047 3045 3044 3042 3042 3042 3042 3042 3042 3041 3041 3040 3041 3042 3043 3044 3046 3048 3050 3052 3054 3056 3059 3061 3064 3067 3069 3072 3075 3079 3082 3085 3089 3094 3099 3102 3106 3109 3111 3112 3113 3114 3115 3116 3117 3119 3122 3123 3122 3121 3121 3123 3124 3124 3124 3124 3125 3125 3125 3125 3126 3126 3126 3127 3128 3128
3095 3093 3092 3090 3088 3087 3084 3081 3079 3077 3074 3070 3067 3064 3061 3057 3054 3051 3047 3044 3042 3041 3039 3039 3038 3037 3036 3036 3035 3035 3035 3035 3035 3036 3037 3039 3041 3043 3045 3048 3050 3052 3055 3058 3061 3064 3067 3070 3073 3077 3081 3085 3089 3093 3098 3101 3104 3106 3107 3109 3109 3110 3111 3113 3115 3117 3118 3117 3117 3118 3119 3120 3119 3119 3120 3121 3121 3121 3122 3122 3122 3122 3123 3124 3125
3093 3091 3090 3088 3087 3085 3083 3080 3077 3073 3071 3068 3065 3063 3060 3056 3053 3049 3044 3041 3039 3037 3035 3034 3033 3032 3031 3030 3029 3029 3029 3029 3029 3030 3031 3033 3035 3037 3039 3041 3043 3045 3048 3052 3056 3059 3061 3064 3068 3072 3076 3080 3084 3089 3093 3096 3098 3100 3103 3104 3105 3106 3106 3108 3110 3111 3112 3113 3114 3113 3114 3115 3115 3115 3116 3117 3117 3118 3118 3118 3118 3119 3120 3121 3122
3090 3089 3088 3086 3085 3083 3081 3079 3076 3073 3070 3067 3065 3062 3059 3055 3052 3047 3043 3039 3037 3035 3032 3030 3029 3028 3027 3026 3025 3025 3024 3024 3025 3025 3026 3028 3029 3031 3033 3035 3037 3040 3042 3046 3050 3054 3057 3060 3064 3068 3073 3076 3080 3084 3088 3090 3093 3096 3098 3099 3100 3101 3102 3103 3105 3107 3108 3109 3109 3109 3110 3111 3110 3111 3112 3113 3113 3115 3115 3114 3115 3116 3117 3118 3119
3088 3087 3086 3084 3083 3081 3079 3077 3075 3072 3069 3066 3064 3061 3058 3054 3050 3046 3042 3038 3034 3032 3030 3027 3025 3024 3023 3023 3022 3021 3020 3020 3020 3021 3022 3023 3024 3026 3028 3029 3032 3034 3036 3041 3046 3050 3053 3057 3061 3065 3069 3072 3076 3080 3083 3086 3089 3091 3092 3093 3095 3097 3098 3099 3101 3103 3104 3105 3105 3105 3106 3106 3106 3107 3108 3109 3110 3111 3111 3111 3112 3113 3114 3115 3116
3086 3085 3084 3082 3080 3079 3077 3075 3072 3070 3067 3064 3062 3060 3056 3053 3049 3045 3040 3036 3033 3030 3028 3026 3023 3020 3019 3019 3018 3017 3015 3015 3015 3016 3017 3019 3020 3021 3023 3025 3027 3028 3031 3036 3041 3045 3049 3053 3057 3061 3064 3068 3071 3075 3078 3081 3084 3086 3087 3089 3091 3093 3094 3096 3097 3099 3100 3100 3101 3101 3101 3102 3103 3103 3105 3106 3107 3107 3108 3108 3109 3110 3111 3112 3112
3084 3083 3081 3080 3078 3076 3074 3072 3070 3068 3065 3063 3061 3058 3056 3052 3048 3044 3040 3036 3032 3028 3026 3024 3021 3018 3016 3015 3015 3013 3010 3008 3009 3011 3013 3015 3016 3017 3019 3021 3022 3024 3027 3032 3036 3041 3045 3049 3052 3056 3060 3064 3067 3070 3074 3076 3079 3081 3083 3085 3087 3089 3090 3092 3093 3095 3095 3096 3097 3098 3098 3099 3100 3100 3101 3102 3103 3104 3105 3106 3106 3107 3108 3109 3109
3082 3080 3079 3078 3076 3074 3072 3070 3068 3066 3064 3061 3059 3057 3055 3052 3048 3044 3040 3035 3031 3027 3024 3021 3019 3017 3015 3014 3013 3011 3007 3004 3006 3008 3009 3010 3011 3012 3015 3017 3019 3021 3025 3028 3032 3037 3041 3044 3047 3052 3056 3060 3063 3066 3069 3072 3074 3077 3079 3081 3083 3085 3086 3088 3090 3090 3091 3093 3094 3095 3096 3096 3097 3097 3098 3099 3100 3101 3102 3103 3103 3104 3105 3106 3107